User: anonymous   Login
Location: The Jewett Observatory
(46.7288°N, 117.1525°W)
Time: 21:21:39
(UTC-07:00)
Language:

Cosmos 1633 - Orbit

View from above orbital plane
View from above orbital plane
View from above satellite
View from above satellite

Ground track
Ground track

The orbit data is extracted from the following two-line orbital elements,

1 15592U 85020A   16205.80890658  .00001865  00000-0  68624-4 0  9995
2 15592  82.5396 288.0017 0012622 255.7568 104.2270 15.27153937714151
Epoch (UTC): 23 July 2016 19:24:49
Eccentricity: 0.0012622
inclination: 82.5396°
perigee height: 475 km
apogee height: 493 km
right ascension of ascending node: 288.0017°
argument of perigee: 255.7568°
revolutions per day: 15.27153937
mean anomaly at epoch: 104.2270°
orbit number at epoch: 71415

The dashed part of the orbit path shows where the satellite is in the earth's shadow,  

DLR